Previsão horária em Almalyk

Hoje, 18 Janeiro, Segunda-feira

Tempo Temperatura Precipitação Vento Pressão Humidade
00:00 +2°C° 0 mm 3 m/s 683 mmHg 43%
01:00 +1°C° 0 mm 3 m/s 683 mmHg 42%
02:00 +1°C° 0 mm 3 m/s 683 mmHg 41%
03:00 +1°C° 0 mm 3 m/s 683 mmHg 40%
04:00 +1°C° 0 mm 3 m/s 683 mmHg 40%
05:00 +3°C° 0 mm 2 m/s 683 mmHg 39%
06:00 +3°C° 0 mm 2 m/s 683 mmHg 39%
07:00 +2°C° 0 mm 3 m/s 684 mmHg 39%
08:00 +2°C° 0 mm 3 m/s 684 mmHg 38%
09:00 +5°C° 0 mm 2 m/s 684 mmHg 40%
10:00 +6°C° 0 mm 2 m/s 685 mmHg 41%
11:00 +9°C° 0 mm 1 m/s 685 mmHg 42%
12:00 +9°C° 0 mm 1 m/s 685 mmHg 44%
13:00 +10°C° 0 mm 1 m/s 684 mmHg 45%
14:00 +9°C° 0 mm 0 m/s 684 mmHg 47%
15:00 +9°C° 0 mm 1 m/s 684 mmHg 47%
16:00 +8°C° 0 mm 1 m/s 685 mmHg 47%
17:00 +6°C° 0 mm 2 m/s 685 mmHg 47%
18:00 +5°C° 0 mm 2 m/s 685 mmHg 47%
19:00 +5°C° 0 mm 2 m/s 685 mmHg 47%
20:00 +4°C° 0 mm 2 m/s 686 mmHg 47%
21:00 +4°C° 0 mm 2 m/s 686 mmHg 47%
22:00 +4°C° 0 mm 2 m/s 686 mmHg 47%
23:00 +3°C° 0 mm 2 m/s 686 mmHg 48%

Amanhã, 19 Janeiro, Terça-feira

Tempo Temperatura Precipitação Vento Pressão Humidade
00:00 +3°C° 0 mm 2 m/s 686 mmHg 48%
01:00 +3°C° 0 mm 2 m/s 686 mmHg 48%
02:00 +3°C° 0 mm 2 m/s 686 mmHg 49%
03:00 +4°C° 0 mm 2 m/s 687 mmHg 49%
04:00 +4°C° 0 mm 2 m/s 687 mmHg 48%
05:00 +3°C° 0 mm 3 m/s 687 mmHg 48%
06:00 +4°C° 0 mm 2 m/s 687 mmHg 49%
07:00 +4°C° 0 mm 2 m/s 688 mmHg 49%
08:00 +4°C° 0 mm 2 m/s 688 mmHg 49%
09:00 +5°C° 0 mm 2 m/s 688 mmHg 50%
10:00 +7°C° 0 mm 1 m/s 688 mmHg 51%
11:00 +7°C° 0 mm 0 m/s 689 mmHg 52%
12:00 +9°C° 0 mm 1 m/s 688 mmHg 53%
13:00 +9°C° 0 mm 1 m/s 688 mmHg 54%
14:00 +10°C° 0 mm 1 m/s 688 mmHg 54%
15:00 +8°C° 0 mm 2 m/s 688 mmHg 55%
16:00 +7°C° 0 mm 2 m/s 688 mmHg 56%
17:00 +7°C° 0 mm 2 m/s 688 mmHg 57%
18:00 +6°C° 0 mm 2 m/s 689 mmHg 57%
19:00 +6°C° 0 mm 2 m/s 689 mmHg 58%
20:00 +5°C° 0 mm 2 m/s 690 mmHg 58%
21:00 +5°C° 0 mm 2 m/s 690 mmHg 58%
22:00 +6°C° 0 mm 1 m/s 690 mmHg 59%
23:00 +6°C° 0 mm 1 m/s 690 mmHg 59%

Depois de amanhã, 20 Janeiro, Quarta-feira

Tempo Temperatura Precipitação Vento Pressão Humidade
00:00 +5°C° 0.1 mm 1 m/s 690 mmHg 62%
01:00 +5°C° 0.1 mm 1 m/s 691 mmHg 65%
02:00 +5°C° 0.1 mm 1 m/s 691 mmHg 68%
03:00 +4°C° 0.9 mm 2 m/s 691 mmHg 74%
04:00 +2°C° 0.9 mm 3 m/s 692 mmHg 81%
05:00 +2°C° 0.9 mm 3 m/s 692 mmHg 87%
06:00 +2°C° 0 mm 3 m/s 693 mmHg 83%
07:00 +2°C° 0 mm 3 m/s 693 mmHg 80%
08:00 +2°C° 0 mm 3 m/s 694 mmHg 76%
09:00 +3°C° 0 mm 3 m/s 694 mmHg 72%
10:00 +5°C° 0 mm 3 m/s 694 mmHg 67%
11:00 +8°C° 0 mm 3 m/s 694 mmHg 63%
12:00 +8°C° 0 mm 3 m/s 694 mmHg 61%
13:00 +9°C° 0 mm 2 m/s 694 mmHg 59%
14:00 +10°C° 0 mm 2 m/s 693 mmHg 57%
15:00 +9°C° 0 mm 2 m/s 693 mmHg 57%
16:00 +8°C° 0 mm 2 m/s 693 mmHg 58%
17:00 +7°C° 0 mm 3 m/s 693 mmHg 59%
18:00 +5°C° 0 mm 3 m/s 693 mmHg 58%
19:00 +4°C° 0 mm 3 m/s 693 mmHg 57%
20:00 +3°C° 0 mm 3 m/s 693 mmHg 56%
21:00 +3°C° 0 mm 3 m/s 693 mmHg 55%
22:00 +2°C° 0 mm 3 m/s 692 mmHg 54%
23:00 +2°C° 0 mm 3 m/s 692 mmHg 54%

21 Janeiro, Quinta-feira

Tempo Temperatura Precipitação Vento Pressão Humidade
00:00 +1°C° 0 mm 3 m/s 692 mmHg 52%
01:00 +1°C° 0 mm 3 m/s 691 mmHg 51%
02:00 -1°C° 0 mm 4 m/s 691 mmHg 49%
03:00 -1°C° 0 mm 4 m/s 691 mmHg 49%
04:00 -1°C° 0 mm 4 m/s 690 mmHg 48%
05:00 -1°C° 0 mm 4 m/s 690 mmHg 47%
06:00 -1°C° 0 mm 4 m/s 689 mmHg 46%
07:00 -1°C° 0 mm 4 m/s 689 mmHg 45%
08:00 -1°C° 0 mm 4 m/s 689 mmHg 44%
09:00 0°C° 0 mm 4 m/s 688 mmHg 41%
10:00 +3°C° 0 mm 3 m/s 687 mmHg 39%
11:00 +5°C° 0 mm 3 m/s 686 mmHg 36%
12:00 +7°C° 0 mm 3 m/s 686 mmHg 37%
13:00 +7°C° 0 mm 2 m/s 685 mmHg 37%
14:00 +8°C° 0 mm 2 m/s 684 mmHg 38%
15:00 +7°C° 0 mm 2 m/s 684 mmHg 41%
16:00 +5°C° 0 mm 2 m/s 683 mmHg 44%
17:00 +3°C° 0 mm 3 m/s 683 mmHg 47%
18:00 +3°C° 0 mm 3 m/s 683 mmHg 47%
19:00 +3°C° 0 mm 3 m/s 683 mmHg 47%
20:00 +2°C° 0 mm 3 m/s 683 mmHg 46%
21:00 +2°C° 0 mm 3 m/s 682 mmHg 46%
22:00 +2°C° 0 mm 3 m/s 682 mmHg 47%
23:00 +2°C° 0 mm 3 m/s 682 mmHg 47%

22 Janeiro, Sexta-feira

Tempo Temperatura Precipitação Vento Pressão Humidade
00:00 +3°C° 0 mm 2 m/s 682 mmHg 47%
01:00 +3°C° 0 mm 2 m/s 681 mmHg 47%
02:00 +4°C° 0 mm 1 m/s 681 mmHg 47%
03:00 +3°C° 0 mm 1 m/s 681 mmHg 51%
04:00 +3°C° 0 mm 1 m/s 681 mmHg 55%
05:00 +2°C° 0 mm 1 m/s 681 mmHg 59%
06:00 +2°C° 0.2 mm 1 m/s 682 mmHg 62%
07:00 +2°C° 0.2 mm 2 m/s 683 mmHg 64%
08:00 +2°C° 0.2 mm 2 m/s 684 mmHg 67%
09:00 +1°C° 0.4 mm 2 m/s 685 mmHg 76%
10:00 +1°C° 0.4 mm 2 m/s 685 mmHg 85%
11:00 +1°C° 0.4 mm 2 m/s 685 mmHg 94%
12:00 +1°C° 1.9 mm 2 m/s 686 mmHg 95%
13:00 -1°C° 1.9 mm 3 m/s 686 mmHg 95%
14:00 -2°C° 1.9 mm 4 m/s 686 mmHg 96%
15:00 -3°C° 1.5 mm 4 m/s 687 mmHg 96%
16:00 -2°C° 1.5 mm 3 m/s 688 mmHg 96%
17:00 -4°C° 1.5 mm 3 m/s 689 mmHg 96%
18:00 -4°C° 0.8 mm 2 m/s 690 mmHg 96%
19:00 -4°C° 0.8 mm 2 m/s 691 mmHg 96%
20:00 -3°C° 0.8 mm 1 m/s 692 mmHg 96%
21:00 -3°C° 0.5 mm 1 m/s 693 mmHg 96%
22:00 -3°C° 0.5 mm 1 m/s 693 mmHg 96%
23:00 -4°C° 0.5 mm 1 m/s 694 mmHg 95%

23 Janeiro, Sábado

Tempo Temperatura Precipitação Vento Pressão Humidade
00:00 -4°C° 0.3 mm 1 m/s 694 mmHg 95%
01:00 -6°C° 0.3 mm 2 m/s 695 mmHg 95%
02:00 -7°C° 0.3 mm 2 m/s 695 mmHg 94%
03:00 -6°C° 0.1 mm 1 m/s 695 mmHg 93%
04:00 -6°C° 0.1 mm 1 m/s 696 mmHg 93%
05:00 -6°C° 0.1 mm 0 m/s 696 mmHg 92%
06:00 -6°C° 0.1 mm 0 m/s 697 mmHg 93%
07:00 -6°C° 0.1 mm 0 m/s 697 mmHg 94%
08:00 -6°C° 0.1 mm 0 m/s 698 mmHg 95%
09:00 -6°C° 0.1 mm 1 m/s 698 mmHg 94%
10:00 -4°C° 0.1 mm 1 m/s 698 mmHg 93%
11:00 -4°C° 0.1 mm 1 m/s 698 mmHg 92%
12:00 -4°C° 0.1 mm 1 m/s 698 mmHg 90%
13:00 -3°C° 0.1 mm 1 m/s 698 mmHg 88%
14:00 -3°C° 0.1 mm 1 m/s 697 mmHg 87%
15:00 -4°C° 0 mm 1 m/s 698 mmHg 88%
16:00 -6°C° 0 mm 1 m/s 698 mmHg 90%
17:00 -7°C° 0 mm 1 m/s 699 mmHg 91%
18:00 -8°C° 0 mm 1 m/s 699 mmHg 88%
19:00 -8°C° 0 mm 1 m/s 699 mmHg 84%
20:00 -10°C° 0 mm 2 m/s 700 mmHg 80%
21:00 -10°C° 0 mm 2 m/s 699 mmHg 77%
22:00 -10°C° 0 mm 2 m/s 699 mmHg 74%
23:00 -12°C° 0 mm 2 m/s 699 mmHg 71%
Mostrar mais

Necessitamos do seu Consentimento

A Meteoprog e os seus Fornecedores de Serviços podem armazenar e aceder a dados pessoais como cookies, identificadores do dispositivo ou outras tecnologias semelhantes existentes no seu dispositivo e processar estes dados para personalizar conteúdos e anúncios, assim como funcionalidades nas redes sociais e análise de tráfego.

  • Armazenar e/ou aceder a informações no seu dispositivo

    Os cookies, identificadores do dispositivo ou outras informações podem ser armazenados ou acedidos no seu dispositivo, para os fins acima indicados.

  • Anúncios e conteúdos personalizados, medição de anúncios e conteúdos, dados sobre o público-alvo e desenvolvimento de produtos

    Os anúncios e os conteúdos podem ser personalizados com base num perfil. Podem ser adicionados dados adicionais para uma maior personalização dos anúncios e dos conteúdos. A eficácia dos anúncios e dos conteúdos pode ser medida. Podem ser obtidas informações sobre o público que visualizou os anúncios e os conteúdos. Estes dados podem ser usados para desenvolver ou melhorar sistemas, softwares ou a experiência do utilizador.

Ao clicar em "Eu concordo”, permitirá o uso de cookies, identificadores do dispositivo e web beacons mencionados ou outras tecnologias semelhantes. As configurações do navegador do seu dispositivo podem ser alteradas.

Para certos fins, podem ser invocados interesses legítimos ao invés de consentimento. Pode ler mais informação sobre este assunto na nossa Política de Privacidade e Cookies.